20040331,000025,691214,32.985000,-120.381410,NaN,14.583,33.180,40.524,586.82,0.0, NaN,13.520,13.482, NaN,24.659,   NaN,13.61,1013.23,88.01,13.44,29.2,25.5,12.4,13.7,329.3,324.8,11.7,12.9,NaN, NaN,NaN,271.2,NaN,1080691227,NaN,NaN,3.2,000026,   NaN,294.9,32.984910,-120.381280,-0.64,NaN,NaN,14.586, NaN,NaN,NaN, NaN, NaN
20040331,000055,691245,32.985010,-120.381870,NaN,14.583,33.180,40.524,566.88,0.0, NaN,13.520,13.482, NaN,24.659,   NaN,13.60,1013.17,87.96,13.45,32.2,27.2,12.3,13.2,332.3,326.5,11.6,12.4,NaN, NaN,NaN,243.7,NaN,1080691257,NaN,NaN,2.6,000056,   NaN,292.6,32.984930,-120.381740,-0.74,NaN,NaN,14.586, NaN,NaN,NaN, NaN, NaN
20040331,000126,691276,32.985030,-120.382330,NaN,14.586,33.180,40.527,563.23,0.0, NaN,13.520,13.482, NaN,24.658,   NaN,13.56,1013.22,87.84,13.41,33.8,28.1,12.2,12.8,333.3,326.9,11.4,12.0,NaN, NaN,NaN,271.9,NaN,1080691287,NaN,NaN,2.9,000086,   NaN,295.2,32.984940,-120.382200,-1.03,NaN,NaN,14.590, NaN,NaN,NaN, NaN, NaN
20040331,000156,691306,32.985020,-120.382720,NaN,14.585,33.179,40.525,570.63,0.0, NaN,13.520,13.482, NaN,24.657,   NaN,13.52,1013.13,87.59,13.38,32.4,27.8,12.6,13.5,331.6,326.3,11.9,12.7,NaN, NaN,NaN,255.2,NaN,1080691317,NaN,NaN,4.8,000116,   NaN,290.2,32.984940,-120.382590,-0.96,NaN,NaN,14.589, NaN,NaN,NaN, NaN, NaN
20040331,000226,691336,32.984980,-120.383070,NaN,14.581,33.179,40.521,597.71,0.0, NaN,13.520,13.485, NaN,24.658,   NaN,13.49,1013.08,87.51,13.35,32.2,28.5,13.4,14.3,329.9,325.8,12.9,13.7,NaN, NaN,NaN,242.7,NaN,1080691347,NaN,NaN,3.3,000146,   NaN,293.9,32.984880,-120.382950,-0.89,NaN,NaN,14.584, NaN,NaN,NaN, NaN, NaN
20040331,000256,691366,32.984940,-120.383380,NaN,14.585,33.179,40.525,635.35,0.0, NaN,13.520,13.484, NaN,24.657,   NaN,13.51,1013.21,87.62,13.35,34.5,29.8,12.8,13.7,332.1,327.0,12.4,13.2,NaN, NaN,NaN,285.4,NaN,1080691377,NaN,NaN,1.4,000176,   NaN,295.2,32.984850,-120.383270,-0.82,NaN,NaN,14.589, NaN,NaN,NaN, NaN, NaN
20040331,000325,691395,32.984890,-120.383660,NaN,14.580,33.179,40.520,663.93,0.0, NaN,13.520,13.484, NaN,24.659,   NaN,13.55,1013.25,87.92,13.37,33.2,29.4,12.2,13.0,333.5,329.3,11.9,12.7,NaN, NaN,NaN,270.2,NaN,1080691407,NaN,NaN,1.9,000206,   NaN,300.1,32.984790,-120.383540,-0.85,NaN,NaN,14.583, NaN,NaN,NaN, NaN, NaN
20040331,000356,691426,32.984840,-120.383870,NaN,14.580,33.179,40.520,700.82,0.0, NaN,13.518,13.482, NaN,24.658,   NaN,13.58,1013.29,88.16,13.40,31.1,27.4,11.5,12.7,334.3,330.2,11.4,12.5,NaN, NaN,NaN,203.2,NaN,1080691437,NaN,NaN,1.7,000236,   NaN,301.7,32.984730,-120.383760,-0.77,NaN,NaN,14.583, NaN,NaN,NaN, NaN, NaN
20040331,000425,691455,32.984780,-120.384060,NaN,14.576,33.178,40.516,758.54,0.0, NaN,13.516,13.478, NaN,24.659,   NaN,13.62,1013.27,88.47,13.43,33.3,28.9,11.2,12.0,337.8,333.2,11.2,11.9,NaN, NaN,NaN,247.0,NaN,1080691467,NaN,NaN,1.1,000266,   NaN,301.4,32.984670,-120.383950,-0.90,NaN,NaN,14.579, NaN,NaN,NaN, NaN, NaN
20040331,000456,691486,32.984680,-120.384260,NaN,14.574,33.178,40.513,870.45,0.0, NaN,13.516,13.477, NaN,24.659,   NaN,13.49,1013.16,87.72,13.35,36.5,31.2,11.4,11.9,340.7,335.4,11.5,11.9,NaN, NaN,NaN,246.2,NaN,1080691497,NaN,NaN,2.5,000296,   NaN,298.9,32.984580,-120.384120,-1.02,NaN,NaN,14.577, NaN,NaN,NaN, NaN, NaN
20040331,000526,691516,32.984610,-120.384450,NaN,14.560,33.178,40.500,1011.84,0.0, NaN,13.516,13.479, NaN,24.662,   NaN,13.41,1013.23,87.53,13.30,35.3,31.1,12.0,12.5,337.9,333.6,12.0,12.5,NaN, NaN,NaN,247.2,NaN,1080691527,NaN,NaN,2.8,000326,   NaN,301.0,32.984510,-120.384330,-0.98,NaN,NaN,14.563, NaN,NaN,NaN, NaN, NaN
20040331,000556,691546,32.984590,-120.384690,NaN,14.526,33.173,40.463,953.67,0.0, NaN,13.516,13.480, NaN,24.665,   NaN,13.35,1013.23,87.14,13.24,31.2,27.7,12.6,13.2,335.9,332.1,12.5,13.1,NaN, NaN,NaN,334.7,NaN,1080691557,NaN,NaN,1.0,000356,   NaN,309.1,32.984470,-120.384600,-0.92,NaN,NaN,14.529, NaN,NaN,NaN, NaN, NaN
20040331,000625,691575,32.984590,-120.384910,NaN,14.479,33.177,40.423,870.94,0.0, NaN,13.515,13.476, NaN,24.678,   NaN,13.34,1013.36,87.13,13.21,20.7,18.9,12.9,13.8,333.1,331.0,12.6,13.5,NaN, NaN,NaN,292.7,NaN,1080691587,NaN,NaN,0.5,000386,   NaN,319.6,32.984450,-120.384820,-0.59,NaN,NaN,14.482, NaN,NaN,NaN, NaN, NaN
20040331,000655,691605,32.984570,-120.385050,NaN,14.431,33.177,40.379,984.06,0.0, NaN,13.514,13.474, NaN,24.689,   NaN,13.35,1013.23,86.99,13.23,13.7,12.3,13.1,13.9,332.3,330.6,12.8,13.6,NaN, NaN,NaN,223.5,NaN,1080691617,NaN,NaN,1.1,000416,   NaN,314.7,32.984450,-120.384960,-0.52,NaN,NaN,14.434, NaN,NaN,NaN, NaN, NaN
20040331,000726,691635,32.984520,-120.385210,NaN,14.381,33.178,40.333,1252.70,0.0, NaN,13.513,13.474, NaN,24.700,   NaN,13.35,1013.28,86.60,13.19,19.5,17.1,13.1,14.2,335.4,332.7,13.0,14.1,NaN, NaN,NaN,264.8,NaN,1080691647,NaN,NaN,0.7,000446,   NaN,305.2,32.984410,-120.385100,-0.82,NaN,NaN,14.384, NaN,NaN,NaN, NaN, NaN
20040331,000756,691666,32.984510,-120.385450,NaN,14.376,33.175,40.325,1054.11,0.0, NaN,13.513,13.475, NaN,24.698,   NaN,13.45,1013.31,87.17,13.25,26.5,22.5,12.1,13.4,338.2,333.7,11.9,13.2,NaN, NaN,NaN,245.2,NaN,1080691677,NaN,NaN,2.2,000476,   NaN,307.2,32.984400,-120.385350,-0.79,NaN,NaN,14.379, NaN,NaN,NaN, NaN, NaN
20040331,000826,691696,32.984520,-120.385730,NaN,14.380,33.179,40.332,862.44,0.0, NaN,13.511,13.474, NaN,24.700,   NaN,13.48,1013.24,87.07,13.28,27.1,23.1,12.1,13.1,338.3,333.9,11.8,12.8,NaN, NaN,NaN,273.5,NaN,1080691707,NaN,NaN,1.7,000506,   NaN,308.1,32.984420,-120.385630,-0.88,NaN,NaN,14.383, NaN,NaN,NaN, NaN, NaN
20040331,000855,691724,32.984500,-120.385950,NaN,14.348,33.178,40.302,788.75,0.0, NaN,13.510,13.471, NaN,24.706,   NaN,13.41,1013.17,86.45,13.26,27.6,23.8,13.2,14.2,339.2,335.2,12.9,13.9,NaN, NaN,NaN,303.0,NaN,1080691737,NaN,NaN,0.4,000536,   NaN,308.9,32.984390,-120.385840,-0.79,NaN,NaN,14.351, NaN,NaN,NaN, NaN, NaN
20040331,000926,691756,32.984460,-120.386180,NaN,14.330,33.178,40.285,763.39,0.0, NaN,13.508,13.470, NaN,24.711,   NaN,13.41,1013.12,86.30,13.26,28.6,24.3,13.9,14.8,339.4,334.8,13.7,14.6,NaN, NaN,NaN,199.5,NaN,1080691767,NaN,NaN,1.7,000566,   NaN,303.9,32.984350,-120.386070,-0.96,NaN,NaN,14.333, NaN,NaN,NaN, NaN, NaN
20040331,000956,691785,32.984400,-120.386410,NaN,14.319,33.178,40.275,761.14,0.0, NaN,13.508,13.470, NaN,24.713,   NaN,13.46,1013.15,86.57,13.29,29.4,25.4,13.4,14.1,338.2,334.0,13.2,14.0,NaN, NaN,NaN,285.8,NaN,1080691797,NaN,NaN,1.2,000596,   NaN,307.2,32.984310,-120.386300,-0.64,NaN,NaN,14.322, NaN,NaN,NaN, NaN, NaN
20040331,001027,691817,32.984400,-120.386630,NaN,14.336,33.179,40.291,737.80,0.0, NaN,13.507,13.470, NaN,24.710,   NaN,13.50,1013.23,86.71,13.34,25.0,22.2,12.9,13.7,335.6,332.6,12.7,13.4,NaN, NaN,NaN,276.9,NaN,1080691827,NaN,NaN,0.4,000627,   NaN,316.0,32.984280,-120.386540,-0.94,NaN,NaN,14.339, NaN,NaN,NaN, NaN, NaN
20040331,001057,691847,32.984400,-120.386830,NaN,14.360,33.178,40.313,724.98,0.0, NaN,13.508,13.472, NaN,24.704,   NaN,13.52,1013.20,86.78,13.34,19.8,18.0,13.0,13.7,336.8,334.8,12.7,13.5,NaN, NaN,NaN,283.8,NaN,1080691858,NaN,NaN,1.8,000657,   NaN,320.2,32.984270,-120.386750,-0.68,NaN,NaN,14.363, NaN,NaN,NaN, NaN, NaN
20040331,001126,691876,32.984400,-120.386980,NaN,14.375,33.168,40.316,730.82,0.0, NaN,13.508,13.471, NaN,24.693,   NaN,13.54,1013.30,86.82,13.36,16.8,14.9,12.5,13.4,337.9,335.7,12.3,13.2,NaN, NaN,NaN,229.8,NaN,1080691887,NaN,NaN,2.1,000686,   NaN,321.2,32.984270,-120.386900,-0.64,NaN,NaN,14.378, NaN,NaN,NaN, NaN, NaN
20040331,001156,691906,32.984430,-120.387100,NaN,14.383,33.162,40.317,726.42,0.0, NaN,13.508,13.471, NaN,24.687,   NaN,13.51,1013.27,86.69,13.35,12.9,12.2,12.4,13.0,335.4,334.6,12.1,12.7,NaN, NaN,NaN,293.7,NaN,1080691917,NaN,NaN,2.1,000716,   NaN,320.4,32.984290,-120.387030,-0.41,NaN,NaN,14.386, NaN,NaN,NaN, NaN, NaN
20040331,001226,691936,32.984430,-120.387250,NaN,14.386,33.165,40.324,698.39,0.0, NaN,13.508,13.471, NaN,24.689,   NaN,13.56,1013.30,87.12,13.40,14.1,12.3,11.9,12.5,336.5,334.6,11.7,12.2,NaN, NaN,NaN,324.1,NaN,1080691947,NaN,NaN,1.6,000746,   NaN,317.6,32.984310,-120.387160,-0.46,NaN,NaN,14.389, NaN,NaN,NaN, NaN, NaN
20040331,001257,691967,32.984450,-120.387450,NaN,14.389,33.119,40.276,667.98,0.0, NaN,13.507,13.468, NaN,24.653,   NaN,13.53,1013.20,86.87,13.38,19.6,17.1,12.6,13.4,338.2,335.5,12.4,13.1,NaN, NaN,NaN,252.2,NaN,1080691978,NaN,NaN,2.0,000777,   NaN,311.2,32.984340,-120.387350,-0.60,NaN,NaN,14.392, NaN,NaN,NaN, NaN, NaN
20040331,001327,691997,32.984520,-120.387710,NaN,14.390,33.097,40.252,645.61,0.0, NaN,13.506,13.466, NaN,24.635,   NaN,13.47,1013.17,86.71,13.34,23.2,20.0,13.4,14.5,339.1,335.5,13.0,14.0,NaN, NaN,NaN,290.3,NaN,1080692008,NaN,NaN,1.2,000807,   NaN,313.7,32.984400,-120.387620,-0.57,NaN,NaN,14.393, NaN,NaN,NaN, NaN, NaN
20040331,001356,692026,32.984580,-120.387950,NaN,14.390,33.100,40.256,633.45,0.0, NaN,13.504,13.464, NaN,24.638,   NaN,13.52,1013.31,87.28,13.36,22.2,18.5,12.6,13.7,339.2,335.0,12.1,13.2,NaN, NaN,NaN,235.7,NaN,1080692037,NaN,NaN,2.2,000836,   NaN,317.9,32.984450,-120.387870,-0.57,NaN,NaN,14.393, NaN,NaN,NaN, NaN, NaN
20040331,001426,692056,32.984620,-120.388120,NaN,14.387,33.108,40.262,621.18,0.0, NaN,13.500,13.463, NaN,24.645,   NaN,13.59,1013.32,87.79,13.41,18.9,15.1,11.4,12.3,339.4,335.0,11.0,11.9,NaN, NaN,NaN,247.2,NaN,1080692067,NaN,NaN,1.6,000866,   NaN,322.6,32.984490,-120.388050,-0.51,NaN,NaN,14.390, NaN,NaN,NaN, NaN, NaN
20040331,001457,692087,32.984660,-120.388280,NaN,14.387,33.137,40.294,591.36,0.0, NaN,13.498,13.462, NaN,24.667,   NaN,13.57,1013.29,87.69,13.41,12.7,10.6,11.3,12.1,335.5,333.1,10.9,11.7,NaN, NaN,NaN,321.6,NaN,1080692098,NaN,NaN,0.6,000897,   NaN,318.7,32.984530,-120.388190,-0.81,NaN,NaN,14.390, NaN,NaN,NaN, NaN, NaN
20040331,001526,692116,32.984710,-120.388460,NaN,14.384,33.151,40.306,575.48,0.0, NaN,13.499,13.462, NaN,24.678,   NaN,13.49,1013.24,87.38,13.36,12.3,10.2,11.7,12.6,333.4,331.0,11.3,12.2,NaN, NaN,NaN,288.2,NaN,1080692127,NaN,NaN,3.3,000926,   NaN,312.9,32.984590,-120.388370,-0.61,NaN,NaN,14.387, NaN,NaN,NaN, NaN, NaN
20040331,001557,692147,32.984790,-120.388710,NaN,14.379,33.160,40.312,575.88,0.0, NaN,13.499,13.462, NaN,24.687,   NaN,13.46,1013.15,87.38,13.34,17.3,14.4,12.7,13.8,334.7,331.4,12.2,13.3,NaN, NaN,NaN,6.5,NaN,1080692158,NaN,NaN,2.1,000957,   NaN,314.2,32.984660,-120.388620,-0.64,NaN,NaN,14.382, NaN,NaN,NaN, NaN, NaN
20040331,001627,692177,32.984820,-120.388910,NaN,14.376,33.166,40.315,593.56,0.0, NaN,13.502,13.463, NaN,24.691,   NaN,13.47,1013.30,87.66,13.34,17.9,15.6,12.7,13.7,335.0,332.3,12.2,13.1,NaN, NaN,NaN,338.1,NaN,1080692188,NaN,NaN,0.7,000987,   NaN,317.9,32.984690,-120.388820,-0.59,NaN,NaN,14.379, NaN,NaN,NaN, NaN, NaN
20040331,001656,692206,32.984800,-120.389060,NaN,14.379,33.168,40.320,601.22,0.0, NaN,13.504,13.464, NaN,24.692,   NaN,13.48,1013.23,87.69,13.34,15.9,13.5,12.3,13.2,334.2,331.5,11.9,12.8,NaN, NaN,NaN,228.8,NaN,1080692217,NaN,NaN,0.7,001016,   NaN,315.6,32.984680,-120.388980,-0.65,NaN,NaN,14.382, NaN,NaN,NaN, NaN, NaN
20040331,001727,692237,32.984900,-120.389340,NaN,14.380,33.170,40.322,589.79,0.0, NaN,13.504,13.464, NaN,24.694,   NaN,13.47,1013.24,87.72,13.33,16.2,14.3,12.4,13.2,334.9,332.7,11.9,12.8,NaN, NaN,NaN,264.3,NaN,1080692248,NaN,NaN,2.7,001047,   NaN,317.1,32.984780,-120.389240,-0.59,NaN,NaN,14.383, NaN,NaN,NaN, NaN, NaN
20040331,001757,692267,32.984970,-120.389520,NaN,14.376,33.154,40.302,594.80,0.0, NaN,13.502,13.463, NaN,24.682,   NaN,13.50,1013.28,87.98,13.34,14.1,11.6,12.0,13.0,334.2,331.4,11.5,12.4,NaN, NaN,NaN,336.6,NaN,1080692278,NaN,NaN,1.9,001077,   NaN,323.2,32.984840,-120.389460,-0.33,NaN,NaN,14.379, NaN,NaN,NaN, NaN, NaN
20040331,001827,692297,32.985050,-120.389680,NaN,14.381,33.100,40.248,598.49,0.0, NaN,13.500,13.462, NaN,24.639,   NaN,13.48,1013.31,87.93,13.34,5.5,4.8,11.2,12.9,329.8,328.5,10.6,12.3,NaN, NaN,NaN,332.5,NaN,1080692308,NaN,NaN,0.7,001107,   NaN,328.4,32.984920,-120.389620,-0.20,NaN,NaN,14.384, NaN,NaN,NaN, NaN, NaN
20040331,001857,692327,32.985230,-120.389850,NaN,14.388,33.117,40.273,570.44,0.0, NaN,13.499,13.462, NaN,24.651,   NaN,13.49,1013.25,88.06,13.34,3.5,359.6,10.7,13.0,331.4,327.3,10.1,12.3,NaN, NaN,NaN,339.7,NaN,1080692337,NaN,NaN,3.3,001137,   NaN,327.9,32.985100,-120.389780,0.06,NaN,NaN,14.391, NaN,NaN,NaN, NaN, NaN
20040331,001927,692357,32.985410,-120.390040,NaN,14.383,33.136,40.288,532.97,0.0, NaN,13.497,13.462, NaN,24.667,   NaN,13.44,1013.21,87.73,13.31,4.2,0.6,11.3,13.3,332.3,328.5,10.5,12.4,NaN, NaN,NaN,302.4,NaN,1080692368,NaN,NaN,1.9,001167,   NaN,326.7,32.985280,-120.389980,-0.29,NaN,NaN,14.386, NaN,NaN,NaN, NaN, NaN
20040331,001956,692386,32.985610,-120.390240,NaN,14.384,33.128,40.281,504.47,0.0, NaN,13.497,13.461, NaN,24.660,   NaN,13.44,1013.27,87.84,13.28,2.2,359.4,11.6,13.4,329.3,326.3,10.7,12.4,NaN, NaN,NaN,351.7,NaN,1080692397,NaN,NaN,1.5,001196,   NaN,325.9,32.985480,-120.390180,-0.16,NaN,NaN,14.387, NaN,NaN,NaN, NaN, NaN
20040331,002026,692416,32.985780,-120.390460,NaN,14.378,33.151,40.302,483.57,0.0, NaN,13.494,13.459, NaN,24.680,   NaN,13.53,1013.32,88.41,13.35,3.1,357.6,11.0,12.5,330.4,324.3,10.2,11.6,NaN, NaN,NaN,231.1,NaN,1080692427,NaN,NaN,1.3,001226,   NaN,326.4,32.985640,-120.390400,-0.31,NaN,NaN,14.381, NaN,NaN,NaN, NaN, NaN
20040331,002057,692447,32.985920,-120.390640,NaN,14.377,33.164,40.313,473.15,0.0, NaN,13.491,13.456, NaN,24.690,   NaN,13.56,1013.34,88.57,13.38,7.7,358.8,10.5,11.6,335.9,326.1,9.8,10.8,NaN, NaN,NaN,329.3,NaN,1080692458,NaN,NaN,0.5,001257,   NaN,328.4,32.985770,-120.390580,-0.28,NaN,NaN,14.380, NaN,NaN,NaN, NaN, NaN
20040331,002127,692477,32.986040,-120.390790,NaN,14.387,33.169,40.329,477.05,0.0, NaN,13.491,13.454, NaN,24.692,   NaN,13.54,1013.25,88.48,13.39,4.6,358.9,10.4,12.0,333.3,327.0,9.7,11.3,NaN, NaN,NaN,342.5,NaN,1080692487,NaN,NaN,1.3,001287,   NaN,327.6,32.985900,-120.390720,-0.08,NaN,NaN,14.390, NaN,NaN,NaN, NaN, NaN
20040331,002157,692507,32.986180,-120.390980,NaN,14.435,33.187,40.393,489.68,0.0, NaN,13.492,13.456, NaN,24.695,   NaN,13.50,1013.28,88.47,13.35,5.1,3.3,11.2,12.6,333.3,331.3,10.6,11.9,NaN, NaN,NaN,279.6,NaN,1080692518,NaN,NaN,2.2,001317,   NaN,324.9,32.986060,-120.390910,-0.12,NaN,NaN,14.438, NaN,NaN,NaN, NaN, NaN
20040331,002227,692537,32.986340,-120.391170,NaN,14.660,33.155,40.569,505.66,0.0, NaN,13.494,13.460, NaN,24.623,   NaN,13.48,1013.17,88.33,13.33,11.1,8.4,12.4,13.1,338.0,335.2,11.7,12.3,NaN, NaN,NaN,327.0,NaN,1080692548,NaN,NaN,0.0,001347,   NaN,325.1,32.986200,-120.391110,-0.02,NaN,NaN,14.664, NaN,NaN,NaN, NaN, NaN
20040331,002256,692566,32.986480,-120.391370,NaN,14.420,33.167,40.357,533.68,0.0, NaN,13.497,13.462, NaN,24.683,   NaN,13.42,1013.24,88.13,13.29,9.2,8.1,13.0,14.0,336.8,335.5,12.3,13.3,NaN, NaN,NaN,303.4,NaN,1080692577,NaN,NaN,1.1,001376,   NaN,330.9,32.986340,-120.391320,-0.28,NaN,NaN,14.423, NaN,NaN,NaN, NaN, NaN
20040331,002327,692597,32.986590,-120.391480,NaN,14.482,33.136,40.381,576.18,0.0, NaN,13.498,13.464, NaN,24.646,   NaN,13.39,1013.32,87.99,13.26,4.2,2.6,12.5,14.0,335.9,334.2,12.0,13.4,NaN, NaN,NaN,327.1,NaN,1080692608,NaN,NaN,3.0,001407,   NaN,335.9,32.986460,-120.391440,0.18,NaN,NaN,14.485, NaN,NaN,NaN, NaN, NaN
20040331,002357,692627,32.986710,-120.391520,NaN,14.464,33.080,40.302,638.87,0.0, NaN,13.499,13.463, NaN,24.606,   NaN,13.38,1013.20,88.02,13.26,354.1,353.3,11.9,13.0,328.6,327.5,11.4,12.4,NaN, NaN,NaN,15.5,NaN,1080692638,NaN,NaN,2.3,001437,   NaN,333.6,32.986560,-120.391470,0.11,NaN,NaN,14.467, NaN,NaN,NaN, NaN, NaN
20040331,002427,692657,32.986880,-120.391580,NaN,14.406,33.059,40.226,639.88,0.0, NaN,13.498,13.463, NaN,24.603,   NaN,13.32,1013.15,87.41,13.17,350.4,347.9,12.8,13.0,323.5,320.8,12.3,12.5,NaN, NaN,NaN,320.2,NaN,1080692668,NaN,NaN,2.3,001467,   NaN,330.6,32.986740,-120.391520,0.29,NaN,NaN,14.409, NaN,NaN,NaN, NaN, NaN
20040331,002457,692687,32.987060,-120.391680,NaN,14.403,33.062,40.227,634.54,0.0, NaN,13.500,13.464, NaN,24.606,   NaN,13.31,1013.20,87.20,13.15,353.4,351.7,13.8,15.0,323.6,321.9,13.1,14.3,NaN, NaN,NaN,312.1,NaN,1080692698,NaN,NaN,2.0,001497,   NaN,326.8,32.986920,-120.391630,0.41,NaN,NaN,14.406, NaN,NaN,NaN, NaN, NaN
20040331,002527,692716,32.987240,-120.391880,NaN,14.399,33.086,40.249,605.29,0.0, NaN,13.498,13.463, NaN,24.625,   NaN,13.31,1013.25,87.02,13.15,359.3,359.2,13.5,15.4,327.0,326.8,12.6,14.6,NaN, NaN,NaN,316.1,NaN,1080692728,NaN,NaN,2.2,001527,   NaN,325.6,32.987110,-120.391810,-0.09,NaN,NaN,14.402, NaN,NaN,NaN, NaN, NaN
20040331,002557,692747,32.987420,-120.392100,NaN,14.392,33.091,40.248,575.52,0.0, NaN,13.496,13.461, NaN,24.630,   NaN,13.31,1013.23,86.80,13.15,4.8,3.4,13.3,15.1,332.2,330.7,12.4,14.2,NaN, NaN,NaN,287.8,NaN,1080692758,NaN,NaN,0.5,001557,   NaN,326.9,32.987290,-120.392040,-0.44,NaN,NaN,14.395, NaN,NaN,NaN, NaN, NaN
20040331,002627,692777,32.987600,-120.392310,NaN,14.398,33.068,40.228,545.35,0.0, NaN,13.494,13.459, NaN,24.611,   NaN,13.32,1013.29,86.79,13.15,5.1,3.7,12.9,14.5,334.6,332.9,12.0,13.6,NaN, NaN,NaN,305.9,NaN,1080692788,NaN,NaN,0.0,001587,   NaN,330.6,32.987470,-120.392250,-0.28,NaN,NaN,14.401, NaN,NaN,NaN, NaN, NaN
20040331,002657,692807,32.987830,-120.392480,NaN,14.399,33.088,40.252,520.29,0.0, NaN,13.491,13.452, NaN,24.627,   NaN,13.36,1013.27,86.97,13.19,3.0,2.0,12.2,14.1,334.1,333.1,11.3,13.2,NaN, NaN,NaN,243.0,NaN,1080692817,NaN,NaN,1.7,001617,   NaN,332.0,32.987690,-120.392430,-0.13,NaN,NaN,14.402, NaN,NaN,NaN, NaN, NaN
20040331,002727,692837,32.988060,-120.392690,NaN,14.396,33.108,40.270,508.67,0.0, NaN,13.488,13.450, NaN,24.642,   NaN,13.37,1013.20,86.87,13.20,2.2,0.2,11.7,14.0,334.1,331.9,10.8,13.0,NaN, NaN,NaN,312.0,NaN,1080692848,NaN,NaN,2.9,001647,   NaN,329.6,32.987930,-120.392640,-0.23,NaN,NaN,14.399, NaN,NaN,NaN, NaN, NaN
20040331,002757,692867,32.988310,-120.392940,NaN,14.392,33.123,40.283,502.68,0.0, NaN,13.482,13.446, NaN,24.655,   NaN,13.37,1013.22,86.76,13.21,3.8,3.5,12.8,14.6,335.0,334.5,11.7,13.5,NaN, NaN,NaN,301.9,NaN,1080692878,NaN,NaN,3.9,001677,   NaN,328.2,32.988190,-120.392880,-0.13,NaN,NaN,14.395, NaN,NaN,NaN, NaN, NaN
20040331,002827,692897,32.988500,-120.393120,NaN,14.397,33.114,40.278,491.33,0.0, NaN,13.479,13.444, NaN,24.647,   NaN,13.38,1013.22,86.77,13.21,4.3,5.5,13.0,14.5,335.6,336.8,12.0,13.5,NaN, NaN,NaN,331.8,NaN,1080692908,NaN,NaN,0.8,001707,   NaN,334.1,32.988360,-120.393080,-0.23,NaN,NaN,14.400, NaN,NaN,NaN, NaN, NaN
20040331,002857,692927,32.988640,-120.393260,NaN,14.385,33.124,40.277,481.23,0.0, NaN,13.479,13.444, NaN,24.657,   NaN,13.41,1013.24,86.85,13.24,3.2,3.5,12.1,14.3,335.6,335.8,11.3,13.5,NaN, NaN,NaN,306.7,NaN,1080692938,NaN,NaN,1.0,001737,   NaN,329.7,32.988510,-120.393190,-0.10,NaN,NaN,14.388, NaN,NaN,NaN, NaN, NaN
20040331,002927,692957,32.988770,-120.393400,NaN,14.377,33.125,40.272,473.95,0.0, NaN,13.479,13.444, NaN,24.660,   NaN,13.45,1013.24,87.14,13.27,6.4,5.0,12.1,13.5,337.1,335.6,11.5,12.9,NaN, NaN,NaN,282.4,NaN,1080692968,NaN,NaN,2.5,001767,   NaN,324.6,32.988630,-120.393340,-0.30,NaN,NaN,14.380, NaN,NaN,NaN, NaN, NaN
20040331,002957,692987,32.988890,-120.393590,NaN,14.368,33.143,40.283,475.10,0.0, NaN,13.479,13.443, NaN,24.675,   NaN,13.46,1013.18,87.04,13.30,11.7,7.3,12.6,13.3,339.3,334.6,12.0,12.6,NaN, NaN,NaN,294.7,NaN,1080692997,NaN,NaN,1.7,001797,   NaN,328.0,32.988750,-120.393530,-0.13,NaN,NaN,14.371, NaN,NaN,NaN, NaN, NaN
20040331,003027,693017,32.989040,-120.393760,NaN,14.364,33.150,40.287,487.64,0.0, NaN,13.478,13.443, NaN,24.682,   NaN,13.45,1013.25,86.91,13.30,8.5,5.9,13.2,14.1,337.7,334.8,12.5,13.4,NaN, NaN,NaN,346.8,NaN,1080693028,NaN,NaN,1.9,001827,   NaN,331.9,32.988910,-120.393710,-0.11,NaN,NaN,14.367, NaN,NaN,NaN, NaN, NaN
20040331,003057,693046,32.989190,-120.393910,NaN,14.361,33.142,40.275,504.07,0.0, NaN,13.478,13.443, NaN,24.676,   NaN,13.45,1013.23,86.90,13.29,1.3,0.6,12.1,13.8,334.3,333.4,11.3,13.1,NaN, NaN,NaN,27.2,NaN,1080693058,NaN,NaN,1.9,001857,   NaN,334.9,32.989070,-120.393860,0.09,NaN,NaN,14.364, NaN,NaN,NaN, NaN, NaN
20040331,003127,693077,32.989400,-120.394030,NaN,14.371,33.087,40.224,501.73,0.0, NaN,13.479,13.444, NaN,24.631,   NaN,13.44,1013.24,86.84,13.29,359.8,358.3,11.4,13.8,334.0,332.3,10.6,13.0,NaN, NaN,NaN,4.1,NaN,1080693088,NaN,NaN,2.4,001887,   NaN,331.8,32.989270,-120.393970,0.22,NaN,NaN,14.374, NaN,NaN,NaN, NaN, NaN
20040331,003157,693107,32.989630,-120.394180,NaN,14.382,33.072,40.218,504.70,0.0, NaN,13.479,13.445, NaN,24.618,   NaN,13.48,1013.25,87.27,13.33,4.5,359.7,11.6,13.5,336.9,332.0,10.9,12.6,NaN, NaN,NaN,262.4,NaN,1080693118,NaN,NaN,2.6,001917,   NaN,327.6,32.989490,-120.394130,0.12,NaN,NaN,14.385, NaN,NaN,NaN, NaN, NaN
20040331,003227,693137,32.989830,-120.394380,NaN,14.381,33.122,40.272,537.33,0.0, NaN,13.480,13.446, NaN,24.657,   NaN,13.49,1013.21,87.20,13.35,5.2,2.1,12.3,13.6,335.3,332.1,11.5,12.6,NaN, NaN,NaN,337.6,NaN,1080693148,NaN,NaN,0.7,001947,   NaN,330.2,32.989690,-120.394330,0.02,NaN,NaN,14.384, NaN,NaN,NaN, NaN, NaN
20040331,003257,693167,32.990050,-120.394560,NaN,14.383,33.146,40.300,541.94,0.0, NaN,13.484,13.447, NaN,24.675,   NaN,13.41,1013.22,86.76,13.30,1.3,0.7,13.0,14.6,331.9,330.9,12.2,13.6,NaN, NaN,NaN,332.4,NaN,1080693178,NaN,NaN,2.6,001977,   NaN,330.6,32.989910,-120.394510,-0.17,NaN,NaN,14.386, NaN,NaN,NaN, NaN, NaN
20040331,003327,693197,32.990240,-120.394750,NaN,14.382,33.153,40.307,529.46,0.0, NaN,13.486,13.449, NaN,24.680,   NaN,13.33,1013.25,86.32,13.22,355.6,356.4,12.8,15.1,327.0,327.2,12.0,14.1,NaN, NaN,NaN,333.9,NaN,1080693208,NaN,NaN,2.6,002007,   NaN,330.8,32.990090,-120.394690,-0.19,NaN,NaN,14.385, NaN,NaN,NaN, NaN, NaN
20040331,003357,693226,32.990480,-120.394910,NaN,14.384,33.164,40.320,529.70,0.0, NaN,13.484,13.447, NaN,24.688,   NaN,13.30,1013.28,86.29,13.19,353.9,354.0,12.6,14.8,323.7,323.6,11.6,13.8,NaN, NaN,NaN,334.8,NaN,1080693238,NaN,NaN,0.9,002037,   NaN,323.0,32.990350,-120.394840,0.20,NaN,NaN,14.387, NaN,NaN,NaN, NaN, NaN
20040331,003427,693257,32.990630,-120.395160,NaN,14.460,33.158,40.385,532.50,0.0, NaN,13.482,13.447, NaN,24.668,   NaN,13.32,1013.09,86.61,13.19,5.6,2.3,12.9,14.3,326.4,322.8,12.0,13.4,NaN, NaN,NaN,273.2,NaN,1080693268,NaN,NaN,3.2,002067,   NaN,298.2,32.990530,-120.395030,-0.07,NaN,NaN,14.463, NaN,NaN,NaN, NaN, NaN
20040331,003457,693287,32.990630,-120.395540,NaN,14.407,33.151,40.327,551.98,0.0, NaN,13.484,13.448, NaN,24.673,   NaN,13.27,1013.05,86.30,13.15,24.3,19.3,13.4,14.3,331.3,325.8,12.7,13.5,NaN, NaN,NaN,274.1,NaN,1080693298,NaN,NaN,1.6,002097,   NaN,296.1,32.990540,-120.395400,-0.87,NaN,NaN,14.410, NaN,NaN,NaN, NaN, NaN
20040331,003527,693317,32.990700,-120.395920,NaN,14.410,33.109,40.284,558.99,0.0, NaN,13.486,13.450, NaN,24.640,   NaN,13.29,1013.22,86.54,13.16,28.0,25.1,13.3,14.4,331.8,328.3,12.6,13.7,NaN, NaN,NaN,331.7,NaN,1080693328,NaN,NaN,1.9,002127,   NaN,308.9,32.990580,-120.395820,-0.62,NaN,NaN,14.413, NaN,NaN,NaN, NaN, NaN
20040331,003557,693347,32.990820,-120.396300,NaN,14.471,33.113,40.346,551.86,0.0, NaN,13.488,13.451, NaN,24.631,   NaN,13.29,1013.20,86.44,13.16,18.4,17.8,13.4,14.5,327.6,326.6,12.5,13.5,NaN, NaN,NaN,314.8,NaN,1080693358,NaN,NaN,2.0,002157,   NaN,307.9,32.990710,-120.396200,-0.76,NaN,NaN,14.474, NaN,NaN,NaN, NaN, NaN
20040331,003627,693377,32.990910,-120.396640,NaN,14.431,33.142,40.340,541.10,0.0, NaN,13.490,13.452, NaN,24.661,   NaN,13.31,1013.19,86.47,13.18,15.2,14.0,14.4,15.0,326.9,325.5,13.4,14.0,NaN, NaN,NaN,175.3,NaN,1080693388,NaN,NaN,2.1,002187,   NaN,306.5,32.990810,-120.396540,-0.78,NaN,NaN,14.434, NaN,NaN,NaN, NaN, NaN
20040331,003657,693407,32.990910,-120.396880,NaN,14.392,33.143,40.306,546.54,0.0, NaN,13.490,13.452, NaN,24.671,   NaN,13.32,1013.16,86.53,13.21,20.4,17.1,14.1,14.6,331.4,327.7,13.5,14.0,NaN, NaN,NaN,240.8,NaN,1080693418,NaN,NaN,3.2,002217,   NaN,307.9,32.990810,-120.396770,-0.71,NaN,NaN,14.395, NaN,NaN,NaN, NaN, NaN
20040331,003727,693437,32.990900,-120.397080,NaN,14.387,33.164,40.323,550.56,0.0, NaN,13.489,13.451, NaN,24.687,   NaN,13.31,1013.21,86.45,13.20,23.7,19.5,13.4,14.3,333.1,328.5,13.1,13.9,NaN, NaN,NaN,273.0,NaN,1080693448,NaN,NaN,3.3,002247,   NaN,301.9,32.990810,-120.396980,-0.40,NaN,NaN,14.390, NaN,NaN,NaN, NaN, NaN